Year,Month,Day,Hour,Minute,Value (Times are PST for temperature in C)
2006,06,26,00,00,19.10
2006,06,26,00,01,19.10
2006,06,26,00,02,19.10
2006,06,26,00,03,19.20
2006,06,26,00,04,19.20
2006,06,26,00,05,19.20
2006,06,26,00,06,19.20
2006,06,26,00,07,19.20
2006,06,26,00,08,19.20
2006,06,26,00,09,19.20
2006,06,26,00,10,19.20
2006,06,26,00,11,19.20
2006,06,26,00,12,19.20
2006,06,26,00,13,19.20
2006,06,26,00,14,19.20
2006,06,26,00,15,19.20
2006,06,26,00,16,19.10
2006,06,26,00,17,19.10
2006,06,26,00,18,19.10
2006,06,26,00,19,19.10
2006,06,26,00,20,19.10
2006,06,26,00,21,19.10
2006,06,26,00,22,19.00
2006,06,26,00,23,18.90
2006,06,26,00,24,18.90
2006,06,26,00,25,18.90
2006,06,26,00,26,18.90
2006,06,26,00,27,18.90
2006,06,26,00,28,18.90
2006,06,26,00,29,18.90
2006,06,26,00,30,18.90
2006,06,26,00,31,18.90
2006,06,26,00,32,18.80
2006,06,26,00,33,18.80
2006,06,26,00,34,18.80
2006,06,26,00,35,18.80
2006,06,26,00,36,18.80
2006,06,26,00,37,18.80
2006,06,26,00,38,18.80
2006,06,26,00,39,18.80
2006,06,26,00,40,18.90
2006,06,26,00,41,18.90
2006,06,26,00,42,18.90
2006,06,26,00,43,18.90
2006,06,26,00,44,18.90
2006,06,26,00,45,18.90
2006,06,26,00,46,18.90
2006,06,26,00,47,18.90
2006,06,26,00,48,18.90
2006,06,26,00,49,18.90
2006,06,26,00,50,18.90
2006,06,26,00,51,18.90
2006,06,26,00,52,18.90
2006,06,26,00,53,18.90
2006,06,26,00,54,18.90
2006,06,26,00,55,18.90
2006,06,26,00,56,18.90
2006,06,26,00,57,18.90
2006,06,26,00,58,18.90
2006,06,26,00,59,18.90
2006,06,26,01,00,18.90
2006,06,26,01,01,18.90
2006,06,26,01,02,18.90
2006,06,26,01,03,18.90
2006,06,26,01,04,18.80
2006,06,26,01,05,18.80
2006,06,26,01,06,18.80
2006,06,26,01,07,18.80
2006,06,26,01,08,18.80
2006,06,26,01,09,18.80
2006,06,26,01,10,18.80
2006,06,26,01,11,18.80
2006,06,26,01,12,18.80
2006,06,26,01,13,18.80
2006,06,26,01,14,18.80
2006,06,26,01,15,18.80
2006,06,26,01,16,18.80
2006,06,26,01,17,18.80
2006,06,26,01,18,18.80
2006,06,26,01,19,18.80
2006,06,26,01,20,18.80
2006,06,26,01,21,18.80
2006,06,26,01,22,18.70
2006,06,26,01,23,18.70
2006,06,26,01,24,18.70
2006,06,26,01,25,18.70
2006,06,26,01,26,18.60
2006,06,26,01,27,18.60
2006,06,26,01,28,18.50
2006,06,26,01,29,18.50
2006,06,26,01,30,18.50
2006,06,26,01,31,18.40
2006,06,26,01,32,18.30
2006,06,26,01,33,18.30
2006,06,26,01,34,18.20
2006,06,26,01,35,18.20
2006,06,26,01,36,18.20
2006,06,26,01,37,18.20
2006,06,26,01,38,18.10
2006,06,26,01,39,18.10
2006,06,26,01,40,18.00
2006,06,26,01,41,17.90
2006,06,26,01,42,17.90
2006,06,26,01,43,17.90
2006,06,26,01,44,17.90
2006,06,26,01,45,17.90
2006,06,26,01,46,17.90
2006,06,26,01,47,17.90
2006,06,26,01,48,17.90
2006,06,26,01,49,17.90
2006,06,26,01,50,17.90
2006,06,26,01,51,18.00
2006,06,26,01,52,18.10
2006,06,26,01,53,18.10
2006,06,26,01,54,18.20
2006,06,26,01,55,18.20
2006,06,26,01,56,18.30
2006,06,26,01,57,18.40
2006,06,26,01,58,18.40
2006,06,26,01,59,18.50
2006,06,26,02,00,18.60
2006,06,26,02,01,18.60
2006,06,26,02,02,18.70
2006,06,26,02,03,18.70
2006,06,26,02,04,18.80
2006,06,26,02,05,18.90
2006,06,26,02,06,18.90
2006,06,26,02,07,18.90
2006,06,26,02,08,19.10
2006,06,26,02,09,19.10
2006,06,26,02,10,19.10
2006,06,26,02,11,19.10
2006,06,26,02,12,19.10
2006,06,26,02,13,19.10
2006,06,26,02,14,19.10
2006,06,26,02,15,19.10
2006,06,26,02,16,19.10
2006,06,26,02,17,19.10
2006,06,26,02,18,18.90
2006,06,26,02,19,18.90
2006,06,26,02,20,18.90
2006,06,26,02,21,18.80
2006,06,26,02,22,18.80
2006,06,26,02,23,18.70
2006,06,26,02,24,18.60
2006,06,26,02,25,18.50
2006,06,26,02,26,18.50
2006,06,26,02,27,18.40
2006,06,26,02,28,18.30
2006,06,26,02,29,18.20
2006,06,26,02,30,18.20
2006,06,26,02,31,18.20
2006,06,26,02,32,18.00
2006,06,26,02,33,17.90
2006,06,26,02,34,17.80
2006,06,26,02,35,17.70
2006,06,26,02,36,17.70
2006,06,26,02,37,17.60
2006,06,26,02,38,17.50
2006,06,26,02,39,17.40
2006,06,26,02,40,17.40
2006,06,26,02,41,17.30
2006,06,26,02,42,17.30
2006,06,26,02,43,17.20
2006,06,26,02,44,17.20
2006,06,26,02,45,17.10
2006,06,26,02,46,17.10
2006,06,26,02,47,17.00
2006,06,26,02,48,17.00
2006,06,26,02,49,16.90
2006,06,26,02,50,16.90
2006,06,26,02,51,16.90
2006,06,26,02,52,16.80
2006,06,26,02,53,16.80
2006,06,26,02,54,16.70
2006,06,26,02,55,16.70
2006,06,26,02,56,16.70
2006,06,26,02,57,16.70
2006,06,26,02,58,16.70
2006,06,26,02,59,16.70
2006,06,26,03,00,16.70
2006,06,26,03,01,16.70
2006,06,26,03,02,16.70
2006,06,26,03,03,16.70
2006,06,26,03,04,16.70
2006,06,26,03,05,16.70
2006,06,26,03,06,16.70
2006,06,26,03,07,16.70
2006,06,26,03,08,16.70
2006,06,26,03,09,16.70
2006,06,26,03,10,16.70
2006,06,26,03,11,16.80
2006,06,26,03,12,16.80
2006,06,26,03,13,16.90
2006,06,26,03,14,16.90
2006,06,26,03,15,16.90
2006,06,26,03,16,16.90
2006,06,26,03,17,17.00
2006,06,26,03,18,17.00
2006,06,26,03,19,17.00
2006,06,26,03,20,17.00
2006,06,26,03,21,17.00
2006,06,26,03,22,17.00
2006,06,26,03,23,17.00
2006,06,26,03,24,17.00
2006,06,26,03,25,16.90
2006,06,26,03,26,16.90
2006,06,26,03,27,16.90
2006,06,26,03,28,16.90
2006,06,26,03,29,16.90
2006,06,26,03,30,16.90
2006,06,26,03,31,16.90
2006,06,26,03,32,16.90
2006,06,26,03,33,17.00
2006,06,26,03,34,17.00
2006,06,26,03,35,17.00
2006,06,26,03,36,17.00
2006,06,26,03,37,17.00
2006,06,26,03,38,17.00
2006,06,26,03,39,17.00
2006,06,26,03,40,17.00
2006,06,26,03,41,17.00
2006,06,26,03,42,17.00
2006,06,26,03,43,17.00
2006,06,26,03,44,17.00
2006,06,26,03,45,17.00
2006,06,26,03,46,17.00
2006,06,26,03,47,17.00
2006,06,26,03,48,17.00
2006,06,26,03,49,17.00
2006,06,26,03,50,17.00
2006,06,26,03,51,17.00
2006,06,26,03,52,17.00
2006,06,26,03,53,17.00
2006,06,26,03,54,17.10
2006,06,26,03,55,17.20
2006,06,26,03,56,17.20
2006,06,26,03,57,17.20
2006,06,26,03,58,17.30
2006,06,26,03,59,17.30
2006,06,26,04,00,17.30
2006,06,26,04,01,17.30
2006,06,26,04,02,17.30
2006,06,26,04,03,17.30
2006,06,26,04,04,17.30
2006,06,26,04,05,17.30
2006,06,26,04,06,17.30
2006,06,26,04,07,17.30
2006,06,26,04,08,17.30
2006,06,26,04,09,17.40
2006,06,26,04,10,17.40
2006,06,26,04,11,17.50
2006,06,26,04,12,17.50
2006,06,26,04,13,17.60
2006,06,26,04,14,17.60
2006,06,26,04,15,17.60
2006,06,26,04,16,17.70
2006,06,26,04,17,17.70
2006,06,26,04,18,17.70
2006,06,26,04,19,17.60
2006,06,26,04,20,17.60
2006,06,26,04,21,17.60
2006,06,26,04,22,17.50
2006,06,26,04,23,17.50
2006,06,26,04,24,17.40
2006,06,26,04,25,17.40
2006,06,26,04,26,17.30
2006,06,26,04,27,17.30
2006,06,26,04,28,17.20
2006,06,26,04,29,17.10
2006,06,26,04,30,17.00
2006,06,26,04,31,16.90
2006,06,26,04,32,16.90
2006,06,26,04,33,16.80
2006,06,26,04,34,16.70
2006,06,26,04,35,16.70
2006,06,26,04,36,16.60
2006,06,26,04,37,16.60
2006,06,26,04,38,16.50
2006,06,26,04,39,16.40
2006,06,26,04,40,16.40
2006,06,26,04,41,16.30
2006,06,26,04,42,16.20
2006,06,26,04,43,16.20
2006,06,26,04,44,16.10
2006,06,26,04,45,16.10
2006,06,26,04,46,16.00
2006,06,26,04,47,15.90
2006,06,26,04,48,15.80
2006,06,26,04,49,15.80
2006,06,26,04,50,15.80
2006,06,26,04,51,15.80
2006,06,26,04,52,15.70
2006,06,26,04,53,15.70
2006,06,26,04,54,15.70
2006,06,26,04,55,15.60
2006,06,26,04,56,15.60
2006,06,26,04,57,15.60
2006,06,26,04,58,15.60
2006,06,26,04,59,15.50
2006,06,26,05,00,15.50
2006,06,26,05,01,15.50
2006,06,26,05,02,15.50
2006,06,26,05,03,15.40
2006,06,26,05,04,15.40
2006,06,26,05,05,15.40
2006,06,26,05,06,15.40
2006,06,26,05,07,15.30
2006,06,26,05,08,15.30
2006,06,26,05,09,15.30
2006,06,26,05,10,15.40
2006,06,26,05,11,15.50
2006,06,26,05,12,15.50
2006,06,26,05,13,15.60
2006,06,26,05,14,15.70
2006,06,26,05,15,15.80
2006,06,26,05,16,15.80
2006,06,26,05,17,15.90
2006,06,26,05,18,16.00
2006,06,26,05,19,16.10
2006,06,26,05,20,16.20
2006,06,26,05,21,16.20
2006,06,26,05,22,16.30
2006,06,26,05,23,16.30
2006,06,26,05,24,16.40
2006,06,26,05,25,16.50
2006,06,26,05,26,16.60
2006,06,26,05,27,16.70
2006,06,26,05,28,16.70
2006,06,26,05,29,16.70
2006,06,26,05,30,16.70
2006,06,26,05,31,16.70
2006,06,26,05,32,16.70
2006,06,26,05,33,16.70
2006,06,26,05,34,16.70
2006,06,26,05,35,16.70
2006,06,26,05,36,16.70
2006,06,26,05,37,16.70
2006,06,26,05,38,16.70
2006,06,26,05,39,16.70
2006,06,26,05,40,16.70
2006,06,26,05,41,16.70
2006,06,26,05,42,16.70
2006,06,26,05,43,16.70
2006,06,26,05,44,16.60
2006,06,26,05,45,16.60
2006,06,26,05,46,16.50
2006,06,26,05,47,16.40
2006,06,26,05,48,16.40
2006,06,26,05,49,16.40
2006,06,26,05,50,16.40
2006,06,26,05,51,16.30
2006,06,26,05,52,16.30
2006,06,26,05,53,16.30
2006,06,26,05,54,16.30
2006,06,26,05,55,16.20
2006,06,26,05,56,16.20
2006,06,26,05,57,16.20
2006,06,26,05,58,16.20
2006,06,26,05,59,16.20
2006,06,26,06,00,16.30
2006,06,26,06,01,16.30
2006,06,26,06,02,16.30
2006,06,26,06,03,16.40
2006,06,26,06,04,16.40
2006,06,26,06,05,16.40
2006,06,26,06,06,16.40
2006,06,26,06,07,16.40
2006,06,26,06,08,16.50
2006,06,26,06,09,16.60
2006,06,26,06,10,16.60
2006,06,26,06,11,16.60
2006,06,26,06,12,16.60
2006,06,26,06,13,16.70
2006,06,26,06,14,16.70
2006,06,26,06,15,16.70
2006,06,26,06,16,16.70
2006,06,26,06,17,16.70
2006,06,26,06,18,16.70
2006,06,26,06,19,16.70
2006,06,26,06,20,16.70
2006,06,26,06,21,16.70
2006,06,26,06,22,16.70
2006,06,26,06,23,16.70
2006,06,26,06,24,16.70
2006,06,26,06,25,16.70
2006,06,26,06,26,16.60
2006,06,26,06,27,16.60
2006,06,26,06,28,16.60
2006,06,26,06,29,16.70
2006,06,26,06,30,16.70
2006,06,26,06,31,16.70
2006,06,26,06,32,16.80
2006,06,26,06,33,16.90
2006,06,26,06,34,16.90
2006,06,26,06,35,17.00
2006,06,26,06,36,17.10
2006,06,26,06,37,17.20
2006,06,26,06,38,17.20
2006,06,26,06,39,17.20
2006,06,26,06,40,17.20
2006,06,26,06,41,17.10
2006,06,26,06,42,17.10
2006,06,26,06,43,17.10
2006,06,26,06,44,17.10
2006,06,26,06,45,17.10
2006,06,26,06,46,17.10
2006,06,26,06,47,17.20
2006,06,26,06,48,17.20
2006,06,26,06,49,17.20
2006,06,26,06,50,17.30
2006,06,26,06,51,17.30
2006,06,26,06,52,17.40
2006,06,26,06,53,17.50
2006,06,26,06,54,17.50
2006,06,26,06,55,17.60
2006,06,26,06,56,17.60
2006,06,26,06,57,17.70
2006,06,26,06,58,17.70
2006,06,26,06,59,17.70
2006,06,26,07,00,17.70
2006,06,26,07,01,17.70
2006,06,26,07,02,17.80
2006,06,26,07,03,17.80
2006,06,26,07,04,17.80
2006,06,26,07,05,17.90
2006,06,26,07,06,17.90
2006,06,26,07,07,17.90
2006,06,26,07,08,17.90
2006,06,26,07,09,18.00
2006,06,26,07,10,18.10
2006,06,26,07,11,18.10
2006,06,26,07,12,18.20
2006,06,26,07,13,18.20
2006,06,26,07,14,18.20
2006,06,26,07,15,18.30
2006,06,26,07,16,18.40
2006,06,26,07,17,18.50
2006,06,26,07,18,18.50
2006,06,26,07,19,18.60
2006,06,26,07,20,18.70
2006,06,26,07,21,18.70
2006,06,26,07,22,18.80
2006,06,26,07,23,18.80
2006,06,26,07,24,18.90
2006,06,26,07,25,19.00
2006,06,26,07,26,19.10
2006,06,26,07,27,19.20
2006,06,26,07,28,19.30
2006,06,26,07,29,19.30
2006,06,26,07,30,19.40
2006,06,26,07,31,19.50
2006,06,26,07,32,19.50
2006,06,26,07,33,19.50
2006,06,26,07,34,19.70
2006,06,26,07,35,19.80
2006,06,26,07,36,19.90
2006,06,26,07,37,19.90
2006,06,26,07,38,20.00
2006,06,26,07,39,20.10
2006,06,26,07,40,20.20
2006,06,26,07,41,20.30
2006,06,26,07,42,20.50
2006,06,26,07,43,20.50
2006,06,26,07,44,20.60
2006,06,26,07,45,20.70
2006,06,26,07,46,20.80
2006,06,26,07,47,20.80
2006,06,26,07,48,20.80
2006,06,26,07,49,20.80
2006,06,26,07,50,20.80
2006,06,26,07,51,20.80
2006,06,26,07,52,20.90
2006,06,26,07,53,20.90
2006,06,26,07,54,20.90
2006,06,26,07,55,20.90
2006,06,26,07,56,21.00
2006,06,26,07,57,21.00
2006,06,26,07,58,21.10
2006,06,26,07,59,21.20
2006,06,26,08,00,21.30
2006,06,26,08,01,21.40
2006,06,26,08,02,21.60
2006,06,26,08,03,21.90
2006,06,26,08,04,22.00
2006,06,26,08,05,22.20
2006,06,26,08,06,22.30
2006,06,26,08,07,22.40
2006,06,26,08,08,22.40
2006,06,26,08,09,22.60
2006,06,26,08,10,22.70
2006,06,26,08,11,22.80
2006,06,26,08,12,22.90
2006,06,26,08,13,23.00
2006,06,26,08,14,23.10
2006,06,26,08,15,23.20
2006,06,26,08,16,23.30
2006,06,26,08,17,23.30
2006,06,26,08,18,23.40
2006,06,26,08,19,23.40
2006,06,26,08,20,23.50
2006,06,26,08,21,23.60
2006,06,26,08,22,23.70
2006,06,26,08,23,23.70
2006,06,26,08,24,23.70
2006,06,26,08,25,23.80
2006,06,26,08,26,23.80
2006,06,26,08,27,23.80
2006,06,26,08,28,23.80
2006,06,26,08,29,23.80
2006,06,26,08,30,23.80
2006,06,26,08,31,23.80
2006,06,26,08,32,23.80
2006,06,26,08,33,23.90
2006,06,26,08,34,23.90
2006,06,26,08,35,24.00
2006,06,26,08,36,24.00
2006,06,26,08,37,24.00
2006,06,26,08,38,24.10
2006,06,26,08,39,24.00
2006,06,26,08,40,23.90
2006,06,26,08,41,23.90
2006,06,26,08,42,23.90
2006,06,26,08,43,23.90
2006,06,26,08,44,23.90
2006,06,26,08,45,23.90
2006,06,26,08,46,23.90
2006,06,26,08,47,23.90
2006,06,26,08,48,23.80
2006,06,26,08,49,23.80
2006,06,26,08,50,23.80
2006,06,26,08,51,23.70
2006,06,26,08,52,23.70
2006,06,26,08,53,23.60
2006,06,26,08,54,23.60
2006,06,26,08,55,23.60
2006,06,26,08,56,23.70
2006,06,26,08,57,23.70
2006,06,26,08,58,23.80
2006,06,26,08,59,23.90
2006,06,26,09,00,23.90
2006,06,26,09,01,23.90
2006,06,26,09,02,23.90
2006,06,26,09,03,23.80
2006,06,26,09,04,23.90
2006,06,26,09,05,23.90
2006,06,26,09,06,23.90
2006,06,26,09,07,23.90
2006,06,26,09,08,23.90
2006,06,26,09,09,23.90
2006,06,26,09,10,23.90
2006,06,26,09,11,23.80
2006,06,26,09,12,23.70
2006,06,26,09,13,23.60
2006,06,26,09,14,23.50
2006,06,26,09,15,23.40
2006,06,26,09,16,23.30
2006,06,26,09,17,23.40
2006,06,26,09,18,23.40
2006,06,26,09,19,23.50
2006,06,26,09,20,23.60
2006,06,26,09,21,23.70
2006,06,26,09,22,23.70
2006,06,26,09,23,23.90
2006,06,26,09,24,23.90
2006,06,26,09,25,23.90
2006,06,26,09,26,24.00
2006,06,26,09,27,24.10
2006,06,26,09,28,24.10
2006,06,26,09,29,24.20
2006,06,26,09,30,24.30
2006,06,26,09,31,24.40
2006,06,26,09,32,24.40
2006,06,26,09,33,24.50
2006,06,26,09,34,24.50
2006,06,26,09,35,24.60
2006,06,26,09,36,24.60
2006,06,26,09,37,24.60
2006,06,26,09,38,24.60
2006,06,26,09,39,24.60
2006,06,26,09,40,24.70
2006,06,26,09,41,24.80
2006,06,26,09,42,24.80
2006,06,26,09,43,24.90
2006,06,26,09,44,24.90
2006,06,26,09,45,24.90
2006,06,26,09,46,24.90
2006,06,26,09,47,25.00
2006,06,26,09,48,25.00
2006,06,26,09,49,24.90
2006,06,26,09,50,24.90
2006,06,26,09,51,24.90
2006,06,26,09,52,24.90
2006,06,26,09,53,25.00
2006,06,26,09,54,24.90
2006,06,26,09,55,24.90
2006,06,26,09,56,24.90
2006,06,26,09,57,24.80
2006,06,26,09,58,24.90
2006,06,26,09,59,24.90
2006,06,26,10,00,25.00
2006,06,26,10,01,25.10
2006,06,26,10,02,25.10
2006,06,26,10,03,25.00
2006,06,26,10,04,25.00
2006,06,26,10,05,25.00
2006,06,26,10,06,25.00
2006,06,26,10,07,25.10
2006,06,26,10,08,25.00
2006,06,26,10,09,25.00
2006,06,26,10,10,25.10
2006,06,26,10,11,25.10
2006,06,26,10,12,25.20
2006,06,26,10,13,25.20
2006,06,26,10,14,25.20
2006,06,26,10,15,25.20
2006,06,26,10,16,25.20
2006,06,26,10,17,25.20
2006,06,26,10,18,25.20
2006,06,26,10,19,25.20
2006,06,26,10,20,25.20
2006,06,26,10,21,25.20
2006,06,26,10,22,25.20
2006,06,26,10,23,25.20
2006,06,26,10,24,25.20
2006,06,26,10,25,25.40
2006,06,26,10,26,25.40
2006,06,26,10,27,25.50
2006,06,26,10,28,25.60
2006,06,26,10,29,25.60
2006,06,26,10,30,25.70
2006,06,26,10,31,25.80
2006,06,26,10,32,25.80
2006,06,26,10,33,25.90
2006,06,26,10,34,26.00
2006,06,26,10,35,26.10
2006,06,26,10,36,26.10
2006,06,26,10,37,26.10
2006,06,26,10,38,26.00
2006,06,26,10,39,26.00
2006,06,26,10,40,26.00
2006,06,26,10,41,25.90
2006,06,26,10,42,25.80
2006,06,26,10,43,25.70
2006,06,26,10,44,25.70
2006,06,26,10,45,25.70
2006,06,26,10,46,25.80
2006,06,26,10,47,25.80
2006,06,26,10,48,25.80
2006,06,26,10,49,25.80
2006,06,26,10,50,25.70
2006,06,26,10,51,25.80
2006,06,26,10,52,25.90
2006,06,26,10,53,25.90
2006,06,26,10,54,26.10
2006,06,26,10,55,26.30
2006,06,26,10,56,26.40
2006,06,26,10,57,26.50
2006,06,26,10,58,26.60
2006,06,26,10,59,26.50
2006,06,26,11,00,26.40
2006,06,26,11,01,26.40
2006,06,26,11,02,26.40
2006,06,26,11,03,26.30
2006,06,26,11,04,26.30
2006,06,26,11,05,26.40
2006,06,26,11,06,26.40
2006,06,26,11,07,26.60
2006,06,26,11,08,26.60
2006,06,26,11,09,26.60
2006,06,26,11,10,26.70
2006,06,26,11,11,26.70
2006,06,26,11,12,26.80
2006,06,26,11,13,26.90
2006,06,26,11,14,26.90
2006,06,26,11,15,27.10
2006,06,26,11,16,26.90
2006,06,26,11,17,26.90
2006,06,26,11,18,26.90
2006,06,26,11,19,26.90
2006,06,26,11,20,26.90
2006,06,26,11,21,27.00
2006,06,26,11,22,27.10
2006,06,26,11,23,27.10
2006,06,26,11,24,27.30
2006,06,26,11,25,27.40
2006,06,26,11,26,27.50
2006,06,26,11,27,27.60
2006,06,26,11,28,27.70
2006,06,26,11,29,27.70
2006,06,26,11,30,27.70
2006,06,26,11,31,27.70
2006,06,26,11,32,27.60
2006,06,26,11,33,27.60
2006,06,26,11,34,27.60
2006,06,26,11,35,27.50
2006,06,26,11,36,27.40
2006,06,26,11,37,27.20
2006,06,26,11,38,27.10
2006,06,26,11,39,27.10
2006,06,26,11,40,27.10
2006,06,26,11,41,27.10
2006,06,26,11,42,27.10
2006,06,26,11,43,27.20
2006,06,26,11,44,27.20
2006,06,26,11,45,27.10
2006,06,26,11,46,27.10
2006,06,26,11,47,27.10
2006,06,26,11,48,27.10
2006,06,26,11,49,27.10
2006,06,26,11,50,27.10
2006,06,26,11,51,27.10
2006,06,26,11,52,27.20
2006,06,26,11,53,27.40
2006,06,26,11,54,27.60
2006,06,26,11,55,27.70
2006,06,26,11,56,27.80
2006,06,26,11,57,27.90
2006,06,26,11,58,27.90
2006,06,26,11,59,27.80
2006,06,26,12,00,27.70
2006,06,26,12,01,27.60
2006,06,26,12,02,27.60
2006,06,26,12,03,27.50
2006,06,26,12,04,27.40
2006,06,26,12,05,27.40
2006,06,26,12,06,27.40
2006,06,26,12,07,27.30
2006,06,26,12,08,27.30
2006,06,26,12,09,27.30
2006,06,26,12,10,27.30
2006,06,26,12,11,27.30
2006,06,26,12,12,27.30
2006,06,26,12,13,27.40
2006,06,26,12,14,27.40
2006,06,26,12,15,27.40
2006,06,26,12,16,27.40
2006,06,26,12,17,27.50
2006,06,26,12,18,27.60
2006,06,26,12,19,27.70
2006,06,26,12,20,27.80
2006,06,26,12,21,27.80
2006,06,26,12,22,27.80
2006,06,26,12,23,27.80
2006,06,26,12,24,27.90
2006,06,26,12,25,28.00
2006,06,26,12,26,28.00
2006,06,26,12,27,28.00
2006,06,26,12,28,28.00
2006,06,26,12,29,28.00
2006,06,26,12,30,28.00
2006,06,26,12,31,28.00
2006,06,26,12,32,28.00
2006,06,26,12,33,27.90
2006,06,26,12,34,27.90
2006,06,26,12,35,27.90
2006,06,26,12,36,28.10
2006,06,26,12,37,28.20
2006,06,26,12,38,28.40
2006,06,26,12,39,28.50
2006,06,26,12,40,28.60
2006,06,26,12,41,28.70
2006,06,26,12,42,28.70
2006,06,26,12,43,28.70
2006,06,26,12,44,28.80
2006,06,26,12,45,28.80
2006,06,26,12,46,28.90
2006,06,26,12,47,28.90
2006,06,26,12,48,28.80
2006,06,26,12,49,28.70
2006,06,26,12,50,28.70
2006,06,26,12,51,28.30
2006,06,26,12,52,28.00
2006,06,26,12,53,27.90
2006,06,26,12,54,27.90
2006,06,26,12,55,27.90
2006,06,26,12,56,27.80
2006,06,26,12,57,27.70
2006,06,26,12,58,27.60
2006,06,26,12,59,27.50
2006,06,26,13,00,27.40
2006,06,26,13,01,27.30
2006,06,26,13,02,27.30
2006,06,26,13,03,27.50
2006,06,26,13,04,27.60
2006,06,26,13,05,27.80
2006,06,26,13,06,28.00
2006,06,26,13,07,28.10
2006,06,26,13,08,28.30
2006,06,26,13,09,28.30
2006,06,26,13,10,28.30
2006,06,26,13,11,28.20
2006,06,26,13,12,28.10
2006,06,26,13,13,28.10
2006,06,26,13,14,28.10
2006,06,26,13,15,28.10
2006,06,26,13,16,28.20
2006,06,26,13,17,28.20
2006,06,26,13,18,28.10
2006,06,26,13,19,28.00
2006,06,26,13,20,28.00
2006,06,26,13,21,28.00
2006,06,26,13,22,28.00
2006,06,26,13,23,28.10
2006,06,26,13,24,28.20
2006,06,26,13,25,28.10
2006,06,26,13,26,28.10
2006,06,26,13,27,28.10
2006,06,26,13,28,28.00
2006,06,26,13,29,28.00
2006,06,26,13,30,28.00
2006,06,26,13,31,28.10
2006,06,26,13,32,28.10
2006,06,26,13,33,28.20
2006,06,26,13,34,28.30
2006,06,26,13,35,28.40
2006,06,26,13,36,28.50
2006,06,26,13,37,28.60
2006,06,26,13,38,28.70
2006,06,26,13,39,28.80
2006,06,26,13,40,28.80
2006,06,26,13,41,28.80
2006,06,26,13,42,28.70
2006,06,26,13,43,28.70
2006,06,26,13,44,28.50
2006,06,26,13,45,28.10
2006,06,26,13,46,28.10
2006,06,26,13,47,28.10
2006,06,26,13,48,28.10
2006,06,26,13,49,28.10
2006,06,26,13,50,28.10
2006,06,26,13,51,28.20
2006,06,26,13,52,28.20
2006,06,26,13,53,28.30
2006,06,26,13,54,28.40
2006,06,26,13,55,28.60
2006,06,26,13,56,28.70
2006,06,26,13,57,28.80
2006,06,26,13,58,28.90
2006,06,26,13,59,29.10
2006,06,26,14,00,29.30
2006,06,26,14,01,29.40
2006,06,26,14,02,29.40
2006,06,26,14,03,29.40
2006,06,26,14,04,29.30
2006,06,26,14,05,29.30
2006,06,26,14,06,29.30
2006,06,26,14,07,29.30
2006,06,26,14,08,29.20
2006,06,26,14,09,29.20
2006,06,26,14,10,29.20
2006,06,26,14,11,29.10
2006,06,26,14,12,28.90
2006,06,26,14,13,28.90
2006,06,26,14,14,28.90
2006,06,26,14,15,28.90
2006,06,26,14,16,28.90
2006,06,26,14,17,28.90
2006,06,26,14,18,29.10
2006,06,26,14,19,29.20
2006,06,26,14,20,29.40
2006,06,26,14,21,29.50
2006,06,26,14,22,29.60
2006,06,26,14,23,29.70
2006,06,26,14,24,29.60
2006,06,26,14,25,29.40
2006,06,26,14,26,29.30
2006,06,26,14,27,29.00
2006,06,26,14,28,28.80
2006,06,26,14,29,28.50
2006,06,26,14,30,28.30
2006,06,26,14,31,28.30
2006,06,26,14,32,28.30
2006,06,26,14,33,28.20
2006,06,26,14,34,28.10
2006,06,26,14,35,28.10
2006,06,26,14,36,28.10
2006,06,26,14,37,28.00
2006,06,26,14,38,28.00
2006,06,26,14,39,28.00
2006,06,26,14,40,27.90
2006,06,26,14,41,27.80
2006,06,26,14,42,27.70
2006,06,26,14,43,27.60
2006,06,26,14,44,27.60
2006,06,26,14,45,27.60
2006,06,26,14,46,27.70
2006,06,26,14,47,27.60
2006,06,26,14,48,27.60
2006,06,26,14,49,27.60
2006,06,26,14,50,27.40
2006,06,26,14,51,27.50
2006,06,26,14,52,27.50
2006,06,26,14,53,27.50
2006,06,26,14,54,27.70
2006,06,26,14,55,27.80
2006,06,26,14,56,27.90
2006,06,26,14,57,28.00
2006,06,26,14,58,28.20
2006,06,26,14,59,28.30
2006,06,26,15,00,28.30
2006,06,26,15,01,28.50
2006,06,26,15,02,28.60
2006,06,26,15,03,28.80
2006,06,26,15,04,28.80
2006,06,26,15,05,28.80
2006,06,26,15,06,28.90
2006,06,26,15,07,28.80
2006,06,26,15,08,28.90
2006,06,26,15,09,28.90
2006,06,26,15,10,28.90
2006,06,26,15,11,28.90
2006,06,26,15,12,28.90
2006,06,26,15,13,28.90
2006,06,26,15,14,28.90
2006,06,26,15,15,28.90
2006,06,26,15,16,28.60
2006,06,26,15,17,28.30
2006,06,26,15,18,28.50
2006,06,26,15,19,28.60
2006,06,26,15,20,28.70
2006,06,26,15,21,28.80
2006,06,26,15,22,28.90
2006,06,26,15,23,28.80
2006,06,26,15,24,28.80
2006,06,26,15,25,28.80
2006,06,26,15,26,28.80
2006,06,26,15,27,28.80
2006,06,26,15,28,28.60
2006,06,26,15,29,28.30
2006,06,26,15,30,28.20
2006,06,26,15,31,28.20
2006,06,26,15,32,28.20
2006,06,26,15,33,28.30
2006,06,26,15,34,28.40
2006,06,26,15,35,28.50
2006,06,26,15,36,28.70
2006,06,26,15,37,28.90
2006,06,26,15,38,29.00
2006,06,26,15,39,29.10
2006,06,26,15,40,29.20
2006,06,26,15,41,29.30
2006,06,26,15,42,29.40
2006,06,26,15,43,29.30
2006,06,26,15,44,29.30
2006,06,26,15,45,29.40
2006,06,26,15,46,29.40
2006,06,26,15,47,29.40
2006,06,26,15,48,29.30
2006,06,26,15,49,29.20
2006,06,26,15,50,29.20
2006,06,26,15,51,29.20
2006,06,26,15,52,29.30
2006,06,26,15,53,29.30
2006,06,26,15,54,29.30
2006,06,26,15,55,29.40
2006,06,26,15,56,29.50
2006,06,26,15,57,29.50
2006,06,26,15,58,29.50
2006,06,26,15,59,29.50
2006,06,26,16,00,29.50
2006,06,26,16,01,29.50
2006,06,26,16,02,29.50
2006,06,26,16,03,29.40
2006,06,26,16,04,29.30
2006,06,26,16,05,29.20
2006,06,26,16,06,29.20
2006,06,26,16,07,29.10
2006,06,26,16,08,29.00
2006,06,26,16,09,28.90
2006,06,26,16,10,29.00
2006,06,26,16,11,29.10
2006,06,26,16,12,29.30
2006,06,26,16,13,29.40
2006,06,26,16,14,29.50
2006,06,26,16,15,29.70
2006,06,26,16,16,29.80
2006,06,26,16,17,30.00
2006,06,26,16,18,30.10
2006,06,26,16,19,30.20
2006,06,26,16,20,30.30
2006,06,26,16,21,30.40
2006,06,26,16,22,30.50
2006,06,26,16,23,30.60
2006,06,26,16,24,30.60
2006,06,26,16,25,30.60
2006,06,26,16,26,30.60
2006,06,26,16,27,30.70
2006,06,26,16,28,30.70
2006,06,26,16,29,30.70
2006,06,26,16,30,30.70
2006,06,26,16,31,30.70
2006,06,26,16,32,30.70
2006,06,26,16,33,30.70
2006,06,26,16,34,30.60
2006,06,26,16,35,30.60
2006,06,26,16,36,30.60
2006,06,26,16,37,30.70
2006,06,26,16,38,30.70
2006,06,26,16,39,30.90
2006,06,26,16,40,31.10
2006,06,26,16,41,31.20
2006,06,26,16,42,31.20
2006,06,26,16,43,31.30
2006,06,26,16,44,31.40
2006,06,26,16,45,31.50
2006,06,26,16,46,31.60
2006,06,26,16,47,31.60
2006,06,26,16,48,31.60
2006,06,26,16,49,31.50
2006,06,26,16,50,31.20
2006,06,26,16,51,31.10
2006,06,26,16,52,31.00
2006,06,26,16,53,31.00
2006,06,26,16,54,31.10
2006,06,26,16,55,30.90
2006,06,26,16,56,30.90
2006,06,26,16,57,30.90
2006,06,26,16,58,30.80
2006,06,26,16,59,30.80
2006,06,26,17,00,30.80
2006,06,26,17,01,30.60
2006,06,26,17,02,30.50
2006,06,26,17,03,30.30
2006,06,26,17,04,30.30
2006,06,26,17,05,30.30
2006,06,26,17,06,30.40
2006,06,26,17,07,30.50
2006,06,26,17,08,30.60
2006,06,26,17,09,30.60
2006,06,26,17,10,30.70
2006,06,26,17,11,30.80
2006,06,26,17,12,30.80
2006,06,26,17,13,30.80
2006,06,26,17,14,30.80
2006,06,26,17,15,30.90
2006,06,26,17,16,30.90
2006,06,26,17,17,30.90
2006,06,26,17,18,30.90
2006,06,26,17,19,31.00